User: anonymous   Login
Location: Unspecified
(0.0000°N, 0.0000°E)
Time: 23:50:50
(UTC+00:00)
Language:

ECAMSAT - Orbit

View from above orbital plane
View from above orbital plane
View from above satellite
View from above satellite

Ground track
Ground track

The orbit data is extracted from the following two-line orbital elements,

1 43019U 98067NG  21023.82025064  .00014925  00000-0  11569-3 0  9998
2 43019  51.6397 249.0228 0004301 155.5786 204.5417 15.72081358267381
Epoch (UTC): 23 January 2021 19:41:09
Eccentricity: 0.0004301
inclination: 51.6397°
perigee height: 350 km
apogee height: 356 km
right ascension of ascending node: 249.0228°
argument of perigee: 155.5786°
revolutions per day: 15.72081358
mean anomaly at epoch: 204.5417°
orbit number at epoch: 26738

The dashed part of the orbit path shows where the satellite is in the earth's shadow,  

DLR